METEOR 2-5 DEB, 39603

Orbit data source: Space-Track

METEOR 2-5 DEB, 39603 is space debris in LEO originally from a launch on Wed, 31 Oct 1979 UTC launched from the Plesetsk Missile And Space Complex (PKMTR). Debris objects in space refer to the collection of defunct objects orbiting the Earth. Examples of debris include non-operational satellites, rocket bodies, and fragments generated from explosions, collisions, or faulty payload assembly.

Loading next visibility...
Identifier
39603, 1979-095CE
Orbit
LEO
Country
Flag of CISCIS
Related business
Manufacturer
Unknown
Mission
Spacecraft
Bus & Motor
Unknown
Mass
Unknown
Launch date (UTC)
1979-10-31 (47 years ago)
Launch vehicle
Unknown
Launch site
Plesetsk Missile And Space Complex (PKMTR)
Object type
Payload
Rocket body
Debris
Shape & HBR
Unknown shape, 0.1 m
Radar Cross Section
Small (<0.1 m²)

Expand to show TLE details & history
Last TLE update: 2 days ago

TLE from 2 days ago
0 METEOR 2-5 DEB
1 39603U 79095CE  26121.67326300  .00004752  00000-0  17021-2 0  9991
2 39603  81.2012 210.3306 0015132 192.7408 167.3396 14.33814342636806
Epoch: 2026-05-01T16:09Z
TLE epoch observation values (Epoch: 2026-05-01T16:09:29.923Z)
Latitude
0.00002°
Longitude
108.35378°
Altitude
792.51 km
Speed
7.452 km/s
True Right ascension
14h 01m 19s
True Declination
0° 00' 00"
Sunlit
Object was in full shadow at epoch
Visualization orbit readout
Latitude
Unknown
Longitude
Unknown
Altitude
Unknown
Speed
Unknown
Apparent Right ascension
Unknown
Apparent Declination
Unknown
Sunlit
N/A
Visualization observer readout
Local Sidereal Time
09:35:46
Azimuth
Unknown
Elevation
Unknown
Doppler factor
Unknown
Orbital elements
Apogee altitude
786.98 km
Perigee altitude
765.328 km
Semi-major axis
7,154.291 km
Eccentricity
0.00151
Inclination
81.2012°
RAAN
210.3306°
Arg. of periapsis
192.7408°
True anomaly
167.37753°
Mean anomaly
167.3396°
Eccentric anomaly
167.35857°
Mean motion
3.58669 °/min
Orbital period
100.37 mins
BSTAR
0.0017021
Loading maneuver chart data...
Computing Atmospheric mass density...
Loading historical data...
Loading historical data...
Loading historical data...
Loading historical data...
Loading historical data...
Loading historical data...
Loading historical data...

Documentation

Showing up to 5 results
|